カタログに戻る

STARLINK-37131

運用中通信SSO
NORAD 68605·PAYLOAD·🇺🇸 United States

打ち上げ Apr 5, 2026 から Vandenberg Space Force Base

Loading…

次のパス (今後24時間)

TLE

最新Source: CelesTrak SupGP

元期: Sep 14, 2026, 21:26 UTC

1 68605C 26073D   26257.89354167  .00078566  00000+0  24402-2 0  2570
2 68605  97.2849  95.9187 0001731  92.8467  25.9915 15.33382185    14

AllMySatでSTARLINK-37131をリアルタイム追跡

Download on the App Store